Location: PSU-Greenbush Astrophysical Observatory
(37.5140°N, 94.9880°W)
Time: 04:31:11
(UTC-06:00)

deb Explorer IX - Pass Details

Date: 27 January 2020
Orbit: 549 x 1099 km, 38.8° (Epoch: 25 February)

Event Time Altitude Azimuth Distance (km) Brightness Sun altitude
Rises 21:08:00 0° 245° (WSW) 3,583 ? -41.6°
Reaches altitude 10° 21:10:30 10° 243° (WSW) 2,711 ? -42.1°
Enters shadow 21:12:26 21° 240° (WSW) 2,068 ? -42.4°
Maximum altitude 21:17:09 73° 160° (SSE) 1,098 - -43.4°
Drops below altitude 10° 21:24:25 10° 77° (ENE) 2,944 - -44.8°
Sets 21:27:13 0° 76° (ENE) 3,908 - -45.3°
